Time,TemperatureF,DewpointF,PressureIn,WindDirection,WindDirectionDegrees,WindSpeedMPH,WindSpeedGustMPH,Humidity,HourlyPrecipIn,Conditions,Clouds,dailyrainin,SoftwareType,DateUTC
2013-06-23 00:01:00,73.2,41.5,30.28,NNE,22,0.0,2.0,32,0.00,,,0.00,meteohub,2013-06-23 04:01:00,
2013-06-23 00:02:00,73.2,41.5,30.28,NNE,22,0.0,2.0,32,0.00,,,0.00,meteohub,2013-06-23 04:02:00,
2013-06-23 00:06:00,73.2,41.5,30.28,NNE,22,0.0,2.0,32,0.00,,,0.00,meteohub,2013-06-23 04:06:00,
2013-06-23 00:10:00,73.2,41.5,30.28,NNE,22,0.0,2.0,32,0.00,,,0.00,meteohub,2013-06-23 04:10:00,
2013-06-23 00:16:00,73.2,41.5,30.28,NNE,22,0.0,2.0,32,0.00,,,0.00,meteohub,2013-06-23 04:16:00,
2013-06-23 00:22:00,73.4,41.7,30.28,ENE,68,1.0,0.0,32,0.00,,,0.00,meteohub,2013-06-23 04:22:00,
2013-06-23 00:23:00,73.4,41.7,30.28,NNE,22,0.0,0.0,32,0.00,,,0.00,meteohub,2013-06-23 04:23:00,
2013-06-23 00:29:00,73.4,41.7,30.28,SE,135,2.0,0.0,32,0.00,,,0.00,meteohub,2013-06-23 04:29:00,
2013-06-23 00:35:00,73.6,41.9,30.28,NE,45,0.0,0.0,32,0.00,,,0.00,meteohub,2013-06-23 04:35:00,
2013-06-23 00:41:00,73.8,42.1,30.28,NE,45,1.0,3.0,32,0.00,,,0.00,meteohub,2013-06-23 04:41:00,
2013-06-23 00:47:00,73.8,42.1,30.28,ENE,68,0.0,3.0,32,0.00,,,0.00,meteohub,2013-06-23 04:47:00,
2013-06-23 00:52:00,73.8,42.1,30.25,NE,45,1.0,2.0,32,0.00,,,0.00,meteohub,2013-06-23 04:52:00,
2013-06-23 00:57:00,73.8,42.1,30.25,ENE,68,0.0,2.0,32,0.00,,,0.00,meteohub,2013-06-23 04:57:00,
2013-06-23 01:02:00,73.8,42.1,30.28,ENE,68,0.0,2.0,32,0.00,,,0.00,meteohub,2013-06-23 05:02:00,
2013-06-23 01:07:00,73.8,42.1,30.28,NNE,22,1.0,2.0,32,0.00,,,0.00,meteohub,2013-06-23 05:07:00,
2013-06-23 01:12:00,73.8,42.1,30.28,NE,45,0.0,3.0,32,0.00,,,0.00,meteohub,2013-06-23 05:12:00,
2013-06-23 01:17:00,73.8,42.1,30.28,ENE,68,0.0,3.0,32,0.00,,,0.00,meteohub,2013-06-23 05:17:00,
2013-06-23 01:22:00,73.8,42.1,30.28,NE,45,0.0,2.0,32,0.00,,,0.00,meteohub,2013-06-23 05:22:00,
2013-06-23 01:27:00,73.8,42.1,30.28,ENE,68,0.0,2.0,32,0.00,,,0.00,meteohub,2013-06-23 05:27:00,
2013-06-23 01:32:00,73.8,42.1,30.28,NE,45,0.0,2.0,32,0.00,,,0.00,meteohub,2013-06-23 05:32:00,
2013-06-23 01:37:00,73.8,42.1,30.28,NE,45,0.0,2.0,32,0.00,,,0.00,meteohub,2013-06-23 05:37:00,
2013-06-23 01:42:00,73.8,42.1,30.28,ENE,68,0.0,2.0,32,0.00,,,0.00,meteohub,2013-06-23 05:42:00,
2013-06-23 01:47:00,73.8,42.1,30.28,ENE,68,0.0,2.0,32,0.00,,,0.00,meteohub,2013-06-23 05:47:00,
2013-06-23 01:52:00,73.8,42.1,30.28,ENE,68,0.0,2.0,32,0.00,,,0.00,meteohub,2013-06-23 05:52:00,
2013-06-23 01:57:00,73.8,42.1,30.28,ENE,68,0.0,2.0,32,0.00,,,0.00,meteohub,2013-06-23 05:57:00,
2013-06-23 02:02:00,73.8,42.1,30.28,ENE,68,0.0,3.0,32,0.00,,,0.00,meteohub,2013-06-23 06:02:00,
2013-06-23 02:07:00,73.8,42.1,30.28,NE,45,1.0,3.0,32,0.00,,,0.00,meteohub,2013-06-23 06:07:00,
2013-06-23 02:12:00,73.8,42.1,30.28,NE,45,0.0,3.0,32,0.00,,,0.00,meteohub,2013-06-23 06:12:00,
2013-06-23 02:19:00,73.9,42.3,30.28,NE,45,1.0,3.0,32,0.00,,,0.00,meteohub,2013-06-23 06:19:00,
2013-06-23 02:25:00,73.9,42.3,30.28,ENE,68,0.0,1.0,32,0.00,,,0.00,meteohub,2013-06-23 06:25:00,
2013-06-23 02:31:00,73.8,42.1,30.28,NNE,22,2.0,2.0,32,0.00,,,0.00,meteohub,2013-06-23 06:31:00,
2013-06-23 02:37:00,73.8,42.1,30.28,ENE,68,0.0,1.0,32,0.00,,,0.00,meteohub,2013-06-23 06:37:00,
2013-06-23 02:42:00,73.8,42.1,30.28,NNE,22,0.0,2.0,32,0.00,,,0.00,meteohub,2013-06-23 06:42:00,
2013-06-23 02:47:00,73.9,42.3,30.25,NE,45,0.0,2.0,32,0.00,,,0.00,meteohub,2013-06-23 06:47:00,
2013-06-23 02:52:00,73.9,43.0,30.25,ENE,68,2.0,2.0,33,0.00,,,0.00,meteohub,2013-06-23 06:52:00,
2013-06-23 02:57:00,73.9,43.0,30.25,NE,45,1.0,2.0,33,0.00,,,0.00,meteohub,2013-06-23 06:57:00,
2013-06-23 03:02:00,73.9,43.0,30.25,ENE,68,0.0,2.0,33,0.00,,,0.00,meteohub,2013-06-23 07:02:00,
2013-06-23 03:07:00,74.1,43.2,30.25,East,90,2.0,2.0,33,0.00,,,0.00,meteohub,2013-06-23 07:07:00,
2013-06-23 03:12:00,74.1,43.2,30.25,NE,45,0.0,3.0,33,0.00,,,0.00,meteohub,2013-06-23 07:12:00,
2013-06-23 03:17:00,74.1,43.2,30.22,East,90,0.0,3.0,33,0.00,,,0.00,meteohub,2013-06-23 07:17:00,
2013-06-23 03:22:00,74.3,43.3,30.22,SSE,158,3.0,3.0,33,0.00,,,0.00,meteohub,2013-06-23 07:22:00,
2013-06-23 03:27:00,74.1,43.2,30.22,ESE,112,2.0,3.0,33,0.00,,,0.00,meteohub,2013-06-23 07:27:00,
2013-06-23 03:32:00,74.1,43.2,30.22,ESE,112,0.0,4.0,33,0.00,,,0.00,meteohub,2013-06-23 07:32:00,
2013-06-23 03:37:00,74.1,43.2,30.22,ENE,68,1.0,4.0,33,0.00,,,0.00,meteohub,2013-06-23 07:37:00,
2013-06-23 03:42:00,74.1,43.2,30.22,ESE,112,1.0,2.0,33,0.00,,,0.00,meteohub,2013-06-23 07:42:00,
2013-06-23 03:47:00,74.1,43.2,30.22,ESE,112,1.0,2.0,33,0.00,,,0.00,meteohub,2013-06-23 07:47:00,
2013-06-23 03:52:00,74.1,43.2,30.22,East,90,0.0,4.0,33,0.00,,,0.00,meteohub,2013-06-23 07:52:00,
2013-06-23 03:57:00,74.1,43.2,30.22,SSE,158,0.0,4.0,33,0.00,,,0.00,meteohub,2013-06-23 07:57:00,
2013-06-23 04:02:00,73.9,43.0,30.22,SSE,158,0.0,4.0,33,0.00,,,0.00,meteohub,2013-06-23 08:02:00,
2013-06-23 04:07:00,74.1,43.2,30.22,ESE,112,0.0,4.0,33,0.00,,,0.00,meteohub,2013-06-23 08:07:00,
2013-06-23 04:12:00,74.1,43.2,30.22,SSE,158,4.0,4.0,33,0.00,,,0.00,meteohub,2013-06-23 08:12:00,
2013-06-23 04:17:00,74.1,43.2,30.19,SSE,158,2.0,3.0,33,0.00,,,0.00,meteohub,2013-06-23 08:17:00,
2013-06-23 04:22:00,74.1,43.2,30.19,SSE,158,3.0,4.0,33,0.00,,,0.00,meteohub,2013-06-23 08:22:00,
2013-06-23 04:27:00,74.1,43.2,30.19,SSE,158,2.0,4.0,33,0.00,,,0.00,meteohub,2013-06-23 08:27:00,
2013-06-23 04:32:00,74.1,43.2,30.22,SE,135,0.0,5.0,33,0.00,,,0.00,meteohub,2013-06-23 08:32:00,
2013-06-23 04:37:00,74.3,43.3,30.22,SSE,158,3.0,5.0,33,0.00,,,0.00,meteohub,2013-06-23 08:37:00,
2013-06-23 04:42:00,74.3,43.3,30.22,SSE,158,2.0,5.0,33,0.00,,,0.00,meteohub,2013-06-23 08:42:00,
2013-06-23 04:47:00,74.5,43.5,30.19,SE,135,4.0,5.0,33,0.00,,,0.00,meteohub,2013-06-23 08:47:00,
2013-06-23 04:52:00,74.5,43.5,30.19,ESE,112,0.0,4.0,33,0.00,,,0.00,meteohub,2013-06-23 08:52:00,
2013-06-23 04:57:00,74.7,43.7,30.19,ESE,112,1.0,4.0,33,0.00,,,0.00,meteohub,2013-06-23 08:57:00,
2013-06-23 05:02:00,74.7,43.7,30.22,SSE,158,1.0,4.0,33,0.00,,,0.00,meteohub,2013-06-23 09:02:00,
2013-06-23 05:07:00,74.8,43.9,30.22,SSE,158,0.0,4.0,33,0.00,,,0.00,meteohub,2013-06-23 09:07:00,
2013-06-23 05:12:00,74.8,43.9,30.22,SSE,158,2.0,4.0,33,0.00,,,0.00,meteohub,2013-06-23 09:12:00,
2013-06-23 05:17:00,74.8,43.9,30.22,SE,135,1.0,4.0,33,0.00,,,0.00,meteohub,2013-06-23 09:17:00,
2013-06-23 05:22:00,74.8,43.9,30.22,SE,135,0.0,4.0,33,0.00,,,0.00,meteohub,2013-06-23 09:22:00,
2013-06-23 05:27:00,75.0,44.1,30.22,SE,135,1.0,4.0,33,0.00,,,0.00,meteohub,2013-06-23 09:27:00,
2013-06-23 05:32:00,75.0,44.1,30.22,SE,135,3.0,4.0,33,0.00,,,0.00,meteohub,2013-06-23 09:32:00,
2013-06-23 05:37:00,75.2,44.1,30.22,SSE,158,5.0,5.0,33,0.00,,,0.00,meteohub,2013-06-23 09:37:00,
2013-06-23 05:42:00,75.2,44.1,30.22,SSE,158,2.0,4.0,33,0.00,,,0.00,meteohub,2013-06-23 09:42:00,
2013-06-23 05:47:00,75.2,44.1,30.22,SSE,158,3.0,4.0,33,0.00,,,0.00,meteohub,2013-06-23 09:47:00,
2013-06-23 05:52:00,75.4,44.2,30.22,SSE,158,3.0,6.0,33,0.00,,,0.00,meteohub,2013-06-23 09:52:00,
2013-06-23 05:58:00,75.4,43.5,30.22,SSE,158,4.0,6.0,32,0.00,,,0.00,meteohub,2013-06-23 09:58:00,
2013-06-23 06:04:00,75.4,43.5,30.22,SSE,158,3.0,5.0,32,0.00,,,0.00,meteohub,2013-06-23 10:04:00,
2013-06-23 06:11:00,75.4,43.5,30.22,SSE,158,2.0,5.0,32,0.00,,,0.00,meteohub,2013-06-23 10:11:00,
2013-06-23 06:17:00,75.4,43.5,30.25,SE,135,5.0,5.0,32,0.00,,,0.00,meteohub,2013-06-23 10:17:00,
2013-06-23 06:22:00,75.2,43.3,30.25,SSE,158,2.0,5.0,32,0.00,,,0.00,meteohub,2013-06-23 10:22:00,
2013-06-23 06:27:00,74.8,43.9,30.25,SSE,158,0.0,5.0,33,0.00,,,0.00,meteohub,2013-06-23 10:27:00,
2013-06-23 06:32:00,74.8,43.9,30.25,SSE,158,2.0,5.0,33,0.00,,,0.00,meteohub,2013-06-23 10:32:00,
2013-06-23 06:37:00,74.8,43.9,30.25,SSE,158,1.0,5.0,33,0.00,,,0.00,meteohub,2013-06-23 10:37:00,
2013-06-23 06:42:00,74.8,43.9,30.25,South,180,1.0,5.0,33,0.00,,,0.00,meteohub,2013-06-23 10:42:00,
2013-06-23 06:47:00,74.7,43.7,30.25,SSE,158,0.0,5.0,33,0.00,,,0.00,meteohub,2013-06-23 10:47:00,
2013-06-23 06:52:00,74.7,43.7,30.25,SSE,158,3.0,4.0,33,0.00,,,0.00,meteohub,2013-06-23 10:52:00,
2013-06-23 06:57:00,74.8,43.9,30.25,SSE,158,3.0,4.0,33,0.00,,,0.00,meteohub,2013-06-23 10:57:00,
2013-06-23 07:02:00,74.8,43.9,30.25,SSE,158,2.0,4.0,33,0.00,,,0.00,meteohub,2013-06-23 11:02:00,
2013-06-23 07:07:00,75.0,44.1,30.25,SSE,158,4.0,4.0,33,0.00,,,0.00,meteohub,2013-06-23 11:07:00,
2013-06-23 07:12:00,75.2,44.1,30.25,SE,135,4.0,4.0,33,0.00,,,0.00,meteohub,2013-06-23 11:12:00,
2013-06-23 07:17:00,75.4,44.2,30.22,SSE,158,3.0,5.0,33,0.00,,,0.00,meteohub,2013-06-23 11:17:00,
2013-06-23 07:22:00,75.6,44.4,30.22,SSE,158,3.0,5.0,33,0.00,,,0.00,meteohub,2013-06-23 11:22:00,
2013-06-23 07:27:00,75.7,44.6,30.22,SSE,158,0.0,5.0,33,0.00,,,0.00,meteohub,2013-06-23 11:27:00,
2013-06-23 07:32:00,75.7,44.6,30.25,SSE,158,4.0,5.0,33,0.00,,,0.00,meteohub,2013-06-23 11:32:00,
2013-06-23 07:37:00,75.7,44.6,30.25,SSE,158,5.0,5.0,33,0.00,,,0.00,meteohub,2013-06-23 11:37:00,
2013-06-23 07:42:00,75.9,44.8,30.25,SSE,158,2.0,5.0,33,0.00,,,0.00,meteohub,2013-06-23 11:42:00,
2013-06-23 07:47:00,76.1,44.1,30.25,SSE,158,3.0,5.0,32,0.00,,,0.00,meteohub,2013-06-23 11:47:00,
2013-06-23 07:52:00,76.1,44.1,30.25,SSE,158,3.0,6.0,32,0.00,,,0.00,meteohub,2013-06-23 11:52:00,
2013-06-23 07:57:00,76.5,44.4,30.25,SSE,158,1.0,6.0,32,0.00,,,0.00,meteohub,2013-06-23 11:57:00,
2013-06-23 08:02:00,76.6,44.6,30.25,SSE,158,3.0,6.0,32,0.00,,,0.00,meteohub,2013-06-23 12:02:00,
2013-06-23 08:07:00,76.6,44.6,30.25,South,180,2.0,6.0,32,0.00,,,0.00,meteohub,2013-06-23 12:07:00,
2013-06-23 08:12:00,77.0,45.0,30.25,SSE,158,3.0,6.0,32,0.00,,,0.00,meteohub,2013-06-23 12:12:00,
2013-06-23 08:17:00,77.0,45.0,30.25,SSE,158,5.0,6.0,32,0.00,,,0.00,meteohub,2013-06-23 12:17:00,
2013-06-23 08:22:00,76.8,44.8,30.25,SSE,158,4.0,6.0,32,0.00,,,0.00,meteohub,2013-06-23 12:22:00,
2013-06-23 08:27:00,77.0,45.0,30.25,South,180,1.0,6.0,32,0.00,,,0.00,meteohub,2013-06-23 12:27:00,
2013-06-23 08:32:00,77.0,44.1,30.25,SSE,158,2.0,8.0,31,0.00,,,0.00,meteohub,2013-06-23 12:32:00,
2013-06-23 08:37:00,77.2,44.2,30.25,SSE,158,6.0,8.0,31,0.00,,,0.00,meteohub,2013-06-23 12:37:00,
2013-06-23 08:42:00,77.2,44.2,30.25,SSE,158,4.0,8.0,31,0.00,,,0.00,meteohub,2013-06-23 12:42:00,
2013-06-23 08:47:00,77.4,44.4,30.25,SE,135,2.0,8.0,31,0.00,,,0.00,meteohub,2013-06-23 12:47:00,
2013-06-23 08:52:00,78.1,45.0,30.25,SSE,158,3.0,8.0,31,0.00,,,0.00,meteohub,2013-06-23 12:52:00,
2013-06-23 08:57:00,78.8,45.7,30.25,SSW,202,0.0,8.0,31,0.00,,,0.00,meteohub,2013-06-23 12:57:00,
2013-06-23 09:02:00,78.8,45.7,30.25,SE,135,1.0,8.0,31,0.00,,,0.00,meteohub,2013-06-23 13:02:00,
2013-06-23 09:07:00,79.2,45.9,30.25,SSE,158,2.0,6.0,31,0.00,,,0.00,meteohub,2013-06-23 13:07:00,
2013-06-23 09:12:00,79.3,45.3,30.25,ESE,112,5.0,6.0,30,0.00,,,0.00,meteohub,2013-06-23 13:12:00,
2013-06-23 09:17:00,78.8,44.8,30.28,South,180,3.0,6.0,30,0.00,,,0.00,meteohub,2013-06-23 13:17:00,
2013-06-23 09:22:00,78.4,45.3,30.28,SE,135,4.0,6.0,31,0.00,,,0.00,meteohub,2013-06-23 13:22:00,
2013-06-23 09:27:00,80.1,46.8,30.28,SSE,158,2.0,7.0,31,0.00,,,0.00,meteohub,2013-06-23 13:27:00,
2013-06-23 09:32:00,83.1,47.7,30.28,South,180,2.0,7.0,29,0.00,,,0.00,meteohub,2013-06-23 13:32:00,
2013-06-23 09:38:00,82.8,47.3,30.28,SSE,158,6.0,7.0,29,0.00,,,0.00,meteohub,2013-06-23 13:38:00,
2013-06-23 09:44:00,82.8,47.3,30.28,ESE,112,3.0,8.0,29,0.00,,,0.00,meteohub,2013-06-23 13:44:00,
2013-06-23 09:50:00,82.8,47.3,30.28,WNW,292,2.0,8.0,29,0.00,,,0.00,meteohub,2013-06-23 13:50:00,
2013-06-23 09:56:00,86.2,49.3,30.28,South,180,3.0,8.0,28,0.00,,,0.00,meteohub,2013-06-23 13:56:00,
2013-06-23 10:02:00,87.4,45.1,30.25,East,90,3.0,6.0,23,0.00,,,0.00,meteohub,2013-06-23 14:02:00,
2013-06-23 10:07:00,85.6,42.4,30.25,South,180,0.0,6.0,22,0.00,,,0.00,meteohub,2013-06-23 14:07:00,
2013-06-23 10:14:00,84.9,40.6,30.25,ESE,112,6.0,6.0,21,0.00,,,0.00,meteohub,2013-06-23 14:14:00,
2013-06-23 10:20:00,84.0,41.2,30.28,South,180,0.0,6.0,22,0.00,,,0.00,meteohub,2013-06-23 14:20:00,
2013-06-23 10:26:00,84.9,43.0,30.28,SE,135,2.0,6.0,23,0.00,,,0.00,meteohub,2013-06-23 14:26:00,
2013-06-23 10:32:00,87.1,43.7,30.28,SSE,158,0.0,6.0,22,0.00,,,0.00,meteohub,2013-06-23 14:32:00,
2013-06-23 10:37:00,86.4,41.9,30.28,SSW,202,2.0,5.0,21,0.00,,,0.00,meteohub,2013-06-23 14:37:00,
2013-06-23 10:42:00,86.0,41.5,30.28,SSE,158,2.0,5.0,21,0.00,,,0.00,meteohub,2013-06-23 14:42:00,
2013-06-23 10:47:00,86.4,40.6,30.28,South,180,1.0,5.0,20,0.00,,,0.00,meteohub,2013-06-23 14:47:00,
2013-06-23 10:52:00,88.2,40.8,30.28,ESE,112,3.0,5.0,19,0.00,,,0.00,meteohub,2013-06-23 14:52:00,
2013-06-23 10:57:00,85.6,39.9,30.28,SE,135,1.0,5.0,20,0.00,,,0.00,meteohub,2013-06-23 14:57:00,
2013-06-23 11:02:00,87.1,39.9,30.28,SW,225,0.0,5.0,19,0.00,,,0.00,meteohub,2013-06-23 15:02:00,
2013-06-23 11:07:00,89.4,41.7,30.28,SE,135,6.0,6.0,19,0.00,,,0.00,meteohub,2013-06-23 15:07:00,
2013-06-23 11:12:00,90.5,41.2,30.28,West,270,1.0,8.0,18,0.00,,,0.00,meteohub,2013-06-23 15:12:00,
2013-06-23 11:17:00,88.7,39.7,30.28,SSE,158,2.0,8.0,18,0.00,,,0.00,meteohub,2013-06-23 15:17:00,
2013-06-23 11:22:00,86.2,39.2,30.28,SSE,158,1.0,8.0,19,0.00,,,0.00,meteohub,2013-06-23 15:22:00,
2013-06-23 11:27:00,85.5,39.9,30.28,SSE,158,1.0,8.0,20,0.00,,,0.00,meteohub,2013-06-23 15:27:00,
2013-06-23 11:32:00,86.5,39.4,30.28,ESE,112,0.0,8.0,19,0.00,,,0.00,meteohub,2013-06-23 15:32:00,
2013-06-23 11:37:00,87.4,40.1,30.28,SSE,158,7.0,8.0,19,0.00,,,0.00,meteohub,2013-06-23 15:37:00,
2013-06-23 11:42:00,87.1,39.9,30.28,SSE,158,1.0,9.0,19,0.00,,,0.00,meteohub,2013-06-23 15:42:00,
2013-06-23 11:47:00,88.5,41.0,30.28,SSE,158,5.0,9.0,19,0.00,,,0.00,meteohub,2013-06-23 15:47:00,
2013-06-23 11:52:00,90.5,41.2,30.28,SSE,158,4.0,9.0,18,0.00,,,0.00,meteohub,2013-06-23 15:52:00,
2013-06-23 11:57:00,89.1,40.1,30.28,ESE,112,0.0,9.0,18,0.00,,,0.00,meteohub,2013-06-23 15:57:00,
2013-06-23 12:02:00,88.2,39.4,30.28,SSE,158,2.0,6.0,18,0.00,,,0.00,meteohub,2013-06-23 16:02:00,
2013-06-23 12:07:00,88.7,39.7,30.28,SE,135,4.0,6.0,18,0.00,,,0.00,meteohub,2013-06-23 16:07:00,
2013-06-23 12:12:00,86.4,39.2,30.28,ENE,68,1.0,7.0,19,0.00,,,0.00,meteohub,2013-06-23 16:12:00,
2013-06-23 12:17:00,86.0,39.0,30.28,SSE,158,0.0,7.0,19,0.00,,,0.00,meteohub,2013-06-23 16:17:00,
2013-06-23 12:23:00,85.8,38.8,30.28,SSE,158,1.0,7.0,19,0.00,,,0.00,meteohub,2013-06-23 16:23:00,
2013-06-23 12:29:00,86.5,39.4,30.28,SSE,158,3.0,5.0,19,0.00,,,0.00,meteohub,2013-06-23 16:29:00,
2013-06-23 12:35:00,85.1,38.3,30.28,SE,135,1.0,5.0,19,0.00,,,0.00,meteohub,2013-06-23 16:35:00,
2013-06-23 12:40:00,84.7,37.9,30.28,SE,135,3.0,5.0,19,0.00,,,0.00,meteohub,2013-06-23 16:40:00,
2013-06-23 12:47:00,84.7,39.2,30.28,South,180,1.0,5.0,20,0.00,,,0.00,meteohub,2013-06-23 16:47:00,
2013-06-23 12:52:00,85.1,39.6,30.28,West,270,1.0,5.0,20,0.00,,,0.00,meteohub,2013-06-23 16:52:00,
2013-06-23 12:57:00,86.4,39.2,30.28,ESE,112,3.0,6.0,19,0.00,,,0.00,meteohub,2013-06-23 16:57:00,
2013-06-23 13:02:00,87.6,40.3,30.25,ESE,112,3.0,6.0,19,0.00,,,0.00,meteohub,2013-06-23 17:02:00,
2013-06-23 13:04:00,87.6,40.3,30.25,South,180,4.0,6.0,19,0.00,,,0.00,meteohub,2013-06-23 17:04:00,
2013-06-23 13:06:00,87.8,40.5,30.25,South,180,4.0,6.0,19,0.00,,,0.00,meteohub,2013-06-23 17:06:00,
2013-06-23 13:07:00,87.8,40.5,30.25,SSE,158,3.0,6.0,19,0.00,,,0.00,meteohub,2013-06-23 17:07:00,
2013-06-23 13:12:00,88.5,39.6,30.25,SSE,158,4.0,6.0,18,0.00,,,0.00,meteohub,2013-06-23 17:12:00,
2013-06-23 13:17:00,89.1,41.5,30.25,SE,135,3.0,6.0,19,0.00,,,0.00,meteohub,2013-06-23 17:17:00,
2013-06-23 13:22:00,89.2,40.3,30.25,SSE,158,5.0,6.0,18,0.00,,,0.00,meteohub,2013-06-23 17:22:00,
2013-06-23 13:27:00,89.6,40.5,30.25,South,180,4.0,6.0,18,0.00,,,0.00,meteohub,2013-06-23 17:27:00,
2013-06-23 13:32:00,90.1,41.0,30.25,SE,135,4.0,6.0,18,0.00,,,0.00,meteohub,2013-06-23 17:32:00,
2013-06-23 13:37:00,89.8,40.6,30.25,South,180,4.0,6.0,18,0.00,,,0.00,meteohub,2013-06-23 17:37:00,
2013-06-23 13:42:00,89.6,40.5,30.25,South,180,0.0,6.0,18,0.00,,,0.00,meteohub,2013-06-23 17:42:00,
2013-06-23 13:47:00,89.6,40.5,30.25,ESE,112,1.0,6.0,18,0.00,,,0.00,meteohub,2013-06-23 17:47:00,
2013-06-23 13:52:00,88.5,39.6,30.25,SSE,158,1.0,6.0,18,0.00,,,0.00,meteohub,2013-06-23 17:52:00,
2013-06-23 13:58:00,88.5,39.6,30.25,South,180,0.0,6.0,18,0.00,,,0.00,meteohub,2013-06-23 17:58:00,
2013-06-23 14:05:00,87.1,39.9,30.22,SSE,158,3.0,4.0,19,0.00,,,0.00,meteohub,2013-06-23 18:05:00,
2013-06-23 14:11:00,88.0,39.2,30.22,SE,135,3.0,5.0,18,0.00,,,0.00,meteohub,2013-06-23 18:11:00,
2013-06-23 14:17:00,87.4,40.1,30.22,ENE,68,0.0,5.0,19,0.00,,,0.00,meteohub,2013-06-23 18:17:00,
2013-06-23 14:22:00,87.6,40.3,30.22,WSW,248,0.0,5.0,19,0.00,,,0.00,meteohub,2013-06-23 18:22:00,
2013-06-23 14:27:00,87.8,39.0,30.22,West,270,2.0,5.0,18,0.00,,,0.00,meteohub,2013-06-23 18:27:00,
2013-06-23 14:32:00,87.3,39.9,30.22,SSE,158,0.0,4.0,19,0.00,,,0.00,meteohub,2013-06-23 18:32:00,
2013-06-23 14:37:00,88.5,39.6,30.22,ESE,112,0.0,4.0,18,0.00,,,0.00,meteohub,2013-06-23 18:37:00,
2013-06-23 14:42:00,90.7,41.4,30.22,SSE,158,3.0,3.0,18,0.00,,,0.00,meteohub,2013-06-23 18:42:00,
2013-06-23 14:47:00,91.2,41.9,30.22,SSE,158,6.0,6.0,18,0.00,,,0.00,meteohub,2013-06-23 18:47:00,
2013-06-23 14:52:00,91.0,41.7,30.22,SSE,158,3.0,6.0,18,0.00,,,0.00,meteohub,2013-06-23 18:52:00,
2013-06-23 14:57:00,91.8,40.8,30.22,ENE,68,0.0,6.0,17,0.00,,,0.00,meteohub,2013-06-23 18:57:00,
2013-06-23 15:02:00,92.5,41.4,30.22,South,180,4.0,6.0,17,0.00,,,0.00,meteohub,2013-06-23 19:02:00,
2013-06-23 15:07:00,93.0,41.7,30.22,WSW,248,2.0,6.0,17,0.00,,,0.00,meteohub,2013-06-23 19:07:00,
2013-06-23 15:12:00,93.4,42.1,30.22,SSE,158,2.0,5.0,17,0.00,,,0.00,meteohub,2013-06-23 19:12:00,
2013-06-23 15:17:00,91.9,41.0,30.19,SSE,158,1.0,5.0,17,0.00,,,0.00,meteohub,2013-06-23 19:17:00,
2013-06-23 15:22:00,92.1,41.0,30.19,SSE,158,4.0,5.0,17,0.00,,,0.00,meteohub,2013-06-23 19:22:00,
2013-06-23 15:27:00,92.3,41.2,30.19,West,270,2.0,5.0,17,0.00,,,0.00,meteohub,2013-06-23 19:27:00,
2013-06-23 15:33:00,92.8,41.7,30.22,South,180,3.0,5.0,17,0.00,,,0.00,meteohub,2013-06-23 19:33:00,
2013-06-23 15:39:00,92.8,41.7,30.22,SSE,158,0.0,5.0,17,0.00,,,0.00,meteohub,2013-06-23 19:39:00,
2013-06-23 15:45:00,92.7,41.5,30.22,SSE,158,0.0,5.0,17,0.00,,,0.00,meteohub,2013-06-23 19:45:00,
2013-06-23 15:51:00,92.5,41.4,30.22,SSE,158,0.0,6.0,17,0.00,,,0.00,meteohub,2013-06-23 19:51:00,
2013-06-23 15:57:00,91.9,41.0,30.22,SSE,158,2.0,6.0,17,0.00,,,0.00,meteohub,2013-06-23 19:57:00,
2013-06-23 16:02:00,92.3,41.2,30.22,SSE,158,2.0,4.0,17,0.00,,,0.00,meteohub,2013-06-23 20:02:00,
2013-06-23 16:07:00,91.6,40.6,30.22,SSE,158,4.0,4.0,17,0.00,,,0.00,meteohub,2013-06-23 20:07:00,
2013-06-23 16:12:00,90.9,40.1,30.22,SE,135,4.0,5.0,17,0.00,,,0.00,meteohub,2013-06-23 20:12:00,
2013-06-23 16:17:00,89.4,40.3,30.22,SE,135,0.0,5.0,18,0.00,,,0.00,meteohub,2013-06-23 20:17:00,
2013-06-23 16:24:00,90.5,39.7,30.22,South,180,3.0,5.0,17,0.00,,,0.00,meteohub,2013-06-23 20:24:00,
2013-06-23 16:30:00,89.4,40.3,30.19,SSE,158,0.0,6.0,18,0.00,,,0.00,meteohub,2013-06-23 20:30:00,
2013-06-23 16:36:00,91.6,40.6,30.19,SE,135,1.0,6.0,17,0.00,,,0.00,meteohub,2013-06-23 20:36:00,
2013-06-23 16:42:00,92.3,41.2,30.19,SSE,158,0.0,5.0,17,0.00,,,0.00,meteohub,2013-06-23 20:42:00,
2013-06-23 16:47:00,91.0,40.3,30.19,SSE,158,4.0,5.0,17,0.00,,,0.00,meteohub,2013-06-23 20:47:00,
2013-06-23 16:52:00,90.0,39.4,30.19,South,180,3.0,4.0,17,0.00,,,0.00,meteohub,2013-06-23 20:52:00,
2013-06-23 16:57:00,88.5,39.6,30.19,SSE,158,0.0,4.0,18,0.00,,,0.00,meteohub,2013-06-23 20:57:00,
2013-06-23 17:02:00,88.7,39.7,30.19,SSE,158,0.0,6.0,18,0.00,,,0.00,meteohub,2013-06-23 21:02:00,
2013-06-23 17:07:00,90.3,41.0,30.19,SSE,158,2.0,6.0,18,0.00,,,0.00,meteohub,2013-06-23 21:07:00,
2013-06-23 17:12:00,91.2,41.9,30.19,SSE,158,1.0,4.0,18,0.00,,,0.00,meteohub,2013-06-23 21:12:00,
2013-06-23 17:17:00,90.1,39.6,30.19,SE,135,1.0,4.0,17,0.00,,,0.00,meteohub,2013-06-23 21:17:00,
2013-06-23 17:22:00,88.3,39.6,30.19,South,180,2.0,5.0,18,0.00,,,0.00,meteohub,2013-06-23 21:22:00,
2013-06-23 17:27:00,88.3,39.6,30.19,SSE,158,0.0,5.0,18,0.00,,,0.00,meteohub,2013-06-23 21:27:00,
2013-06-23 17:32:00,90.0,40.8,30.19,SSE,158,1.0,5.0,18,0.00,,,0.00,meteohub,2013-06-23 21:32:00,
2013-06-23 17:37:00,89.2,40.3,30.19,SE,135,3.0,5.0,18,0.00,,,0.00,meteohub,2013-06-23 21:37:00,
2013-06-23 17:42:00,88.7,39.7,30.19,SSE,158,2.0,4.0,18,0.00,,,0.00,meteohub,2013-06-23 21:42:00,
2013-06-23 17:47:00,88.0,39.2,30.19,South,180,0.0,4.0,18,0.00,,,0.00,meteohub,2013-06-23 21:47:00,
2013-06-23 17:52:00,88.3,39.6,30.19,South,180,0.0,3.0,18,0.00,,,0.00,meteohub,2013-06-23 21:52:00,
2013-06-23 17:57:00,88.7,39.7,30.19,SSE,158,0.0,3.0,18,0.00,,,0.00,meteohub,2013-06-23 21:57:00,
2013-06-23 18:02:00,88.0,39.2,30.19,SSE,158,0.0,3.0,18,0.00,,,0.00,meteohub,2013-06-23 22:02:00,
2013-06-23 18:07:00,87.8,39.0,30.19,SSE,158,0.0,3.0,18,0.00,,,0.00,meteohub,2013-06-23 22:07:00,
2013-06-23 18:12:00,87.3,38.7,30.19,SSE,158,2.0,4.0,18,0.00,,,0.00,meteohub,2013-06-23 22:12:00,
2013-06-23 18:17:00,87.1,38.5,30.19,SSE,158,0.0,4.0,18,0.00,,,0.00,meteohub,2013-06-23 22:17:00,
2013-06-23 18:22:00,86.9,38.3,30.19,SSE,158,2.0,4.0,18,0.00,,,0.00,meteohub,2013-06-23 22:22:00,
2013-06-23 18:27:00,86.7,38.1,30.19,SE,135,0.0,4.0,18,0.00,,,0.00,meteohub,2013-06-23 22:27:00,
2013-06-23 18:32:00,86.5,39.4,30.19,SSE,158,1.0,4.0,19,0.00,,,0.00,meteohub,2013-06-23 22:32:00,
2013-06-23 18:37:00,86.5,39.4,30.19,SSE,158,0.0,4.0,19,0.00,,,0.00,meteohub,2013-06-23 22:37:00,
2013-06-23 18:42:00,87.4,40.1,30.19,SE,135,0.0,4.0,19,0.00,,,0.00,meteohub,2013-06-23 22:42:00,
2013-06-23 18:47:00,88.2,39.4,30.19,SSE,158,1.0,5.0,18,0.00,,,0.00,meteohub,2013-06-23 22:47:00,
2013-06-23 18:52:00,87.8,39.0,30.19,SSE,158,0.0,5.0,18,0.00,,,0.00,meteohub,2013-06-23 22:52:00,
2013-06-23 18:57:00,87.1,39.9,30.19,SE,135,0.0,3.0,19,0.00,,,0.00,meteohub,2013-06-23 22:57:00,
2013-06-23 19:02:00,86.5,39.4,30.19,ESE,112,2.0,3.0,19,0.00,,,0.00,meteohub,2013-06-23 23:02:00,
2013-06-23 19:07:00,86.2,39.2,30.19,SSE,158,2.0,3.0,19,0.00,,,0.00,meteohub,2013-06-23 23:07:00,
2013-06-23 19:12:00,85.6,38.7,30.19,SSE,158,0.0,4.0,19,0.00,,,0.00,meteohub,2013-06-23 23:12:00,
2013-06-23 19:17:00,85.5,38.5,30.19,SSE,158,0.0,4.0,19,0.00,,,0.00,meteohub,2013-06-23 23:17:00,
2013-06-23 19:22:00,85.1,38.3,30.19,SSE,158,1.0,4.0,19,0.00,,,0.00,meteohub,2013-06-23 23:22:00,
2013-06-23 19:27:00,84.7,37.9,30.19,SSE,158,0.0,4.0,19,0.00,,,0.00,meteohub,2013-06-23 23:27:00,
2013-06-23 19:32:00,84.4,37.6,30.19,SSE,158,0.0,2.0,19,0.00,,,0.00,meteohub,2013-06-23 23:32:00,
2013-06-23 19:37:00,84.0,38.7,30.19,SSE,158,0.0,2.0,20,0.00,,,0.00,meteohub,2013-06-23 23:37:00,
2013-06-23 19:39:00,83.8,38.5,30.19,SSE,158,0.0,2.0,20,0.00,,,0.00,meteohub,2013-06-23 23:39:00,
2013-06-23 19:45:00,83.3,39.4,30.19,South,180,0.0,1.0,21,0.00,,,0.00,meteohub,2013-06-23 23:45:00,
2013-06-23 19:51:00,83.1,39.2,30.19,SSE,158,1.0,1.0,21,0.00,,,0.00,meteohub,2013-06-23 23:51:00,
2013-06-23 19:57:00,82.8,38.8,30.19,SSE,158,2.0,2.0,21,0.00,,,0.00,meteohub,2013-06-23 23:57:00,
2013-06-23 20:02:00,82.4,39.7,30.19,SSE,158,0.0,2.0,22,0.00,,,0.00,meteohub,2013-06-24 00:02:00,
2013-06-23 20:07:00,82.2,40.8,30.19,SSE,158,0.0,2.0,23,0.00,,,0.00,meteohub,2013-06-24 00:07:00,
2013-06-23 20:12:00,82.0,40.6,30.19,SSE,158,0.0,3.0,23,0.00,,,0.00,meteohub,2013-06-24 00:12:00,
2013-06-23 20:17:00,81.9,41.5,30.19,SSE,158,0.0,3.0,24,0.00,,,0.00,meteohub,2013-06-24 00:17:00,
2013-06-23 20:22:00,81.7,41.4,30.19,SSE,158,0.0,3.0,24,0.00,,,0.00,meteohub,2013-06-24 00:22:00,
2013-06-23 20:27:00,81.5,42.3,30.19,SSE,158,0.0,3.0,25,0.00,,,0.00,meteohub,2013-06-24 00:27:00,
2013-06-23 20:32:00,81.1,42.1,30.22,SSW,202,0.0,2.0,25,0.00,,,0.00,meteohub,2013-06-24 00:32:00,
2013-06-23 20:37:00,80.8,43.7,30.22,SSW,202,0.0,2.0,27,0.00,,,0.00,meteohub,2013-06-24 00:37:00,
2013-06-23 20:42:00,80.2,45.1,30.22,SSW,202,0.0,1.0,29,0.00,,,0.00,meteohub,2013-06-24 00:42:00,
2013-06-23 20:47:00,80.1,45.9,30.22,South,180,0.0,1.0,30,0.00,,,0.00,meteohub,2013-06-24 00:47:00,
2013-06-23 20:52:00,79.7,45.5,30.22,South,180,0.0,0.0,30,0.00,,,0.00,meteohub,2013-06-24 00:52:00,
2013-06-23 20:57:00,79.5,45.3,30.22,South,180,0.0,0.0,30,0.00,,,0.00,meteohub,2013-06-24 00:57:00,
2013-06-23 21:02:00,79.3,45.3,30.22,SSE,158,0.0,0.0,30,0.00,,,0.00,meteohub,2013-06-24 01:02:00,
2013-06-23 21:07:00,79.5,45.3,30.22,SSE,158,0.0,0.0,30,0.00,,,0.00,meteohub,2013-06-24 01:07:00,
2013-06-23 21:12:00,79.5,45.3,30.22,SSE,158,2.0,3.0,30,0.00,,,0.00,meteohub,2013-06-24 01:12:00,
2013-06-23 21:17:00,79.5,45.3,30.22,SSE,158,0.0,3.0,30,0.00,,,0.00,meteohub,2013-06-24 01:17:00,
2013-06-23 21:22:00,79.5,44.4,30.22,SSE,158,0.0,3.0,29,0.00,,,0.00,meteohub,2013-06-24 01:22:00,
2013-06-23 21:27:00,79.3,43.3,30.22,SE,135,1.0,3.0,28,0.00,,,0.00,meteohub,2013-06-24 01:27:00,
2013-06-23 21:32:00,79.5,41.7,30.22,SE,135,3.0,3.0,26,0.00,,,0.00,meteohub,2013-06-24 01:32:00,
2013-06-23 21:37:00,79.5,40.6,30.22,SSE,158,2.0,3.0,25,0.00,,,0.00,meteohub,2013-06-24 01:37:00,
2013-06-23 21:42:00,79.5,39.6,30.22,SSE,158,2.0,4.0,24,0.00,,,0.00,meteohub,2013-06-24 01:42:00,
2013-06-23 21:47:00,79.5,38.5,30.22,SSE,158,0.0,4.0,23,0.00,,,0.00,meteohub,2013-06-24 01:47:00,
2013-06-23 21:52:00,79.5,38.5,30.22,SSE,158,2.0,3.0,23,0.00,,,0.00,meteohub,2013-06-24 01:52:00,
2013-06-23 21:57:00,79.3,38.3,30.22,SSE,158,1.0,3.0,23,0.00,,,0.00,meteohub,2013-06-24 01:57:00,
2013-06-23 22:02:00,79.3,38.3,30.22,SSE,158,2.0,4.0,23,0.00,,,0.00,meteohub,2013-06-24 02:02:00,
2013-06-23 22:07:00,79.3,38.3,30.22,SSE,158,4.0,4.0,23,0.00,,,0.00,meteohub,2013-06-24 02:07:00,
2013-06-23 22:12:00,79.2,39.4,30.22,South,180,4.0,4.0,24,0.00,,,0.00,meteohub,2013-06-24 02:12:00,
2013-06-23 22:17:00,79.2,39.4,30.22,SSE,158,3.0,4.0,24,0.00,,,0.00,meteohub,2013-06-24 02:17:00,
2013-06-23 22:22:00,79.2,40.3,30.22,SSE,158,3.0,4.0,25,0.00,,,0.00,meteohub,2013-06-24 02:22:00,
2013-06-23 22:27:00,79.0,40.3,30.22,SSE,158,1.0,4.0,25,0.00,,,0.00,meteohub,2013-06-24 02:27:00,
2013-06-23 22:34:00,78.6,39.9,30.22,SSE,158,0.0,5.0,25,0.00,,,0.00,meteohub,2013-06-24 02:34:00,
2013-06-23 22:40:00,78.4,41.7,30.22,SSE,158,2.0,5.0,27,0.00,,,0.00,meteohub,2013-06-24 02:40:00,
2013-06-23 22:46:00,78.4,42.6,30.22,SSE,158,1.0,5.0,28,0.00,,,0.00,meteohub,2013-06-24 02:46:00,
2013-06-23 22:52:00,78.3,44.2,30.22,South,180,1.0,6.0,30,0.00,,,0.00,meteohub,2013-06-24 02:52:00,
2013-06-23 22:57:00,78.1,45.0,30.22,SSE,158,2.0,6.0,31,0.00,,,0.00,meteohub,2013-06-24 02:57:00,
2013-06-23 23:02:00,78.1,45.0,30.22,ESE,112,1.0,4.0,31,0.00,,,0.00,meteohub,2013-06-24 03:02:00,
2013-06-23 23:07:00,77.9,44.8,30.22,SSE,158,3.0,4.0,31,0.00,,,0.00,meteohub,2013-06-24 03:07:00,
2013-06-23 23:12:00,77.9,44.8,30.22,SSE,158,0.0,4.0,31,0.00,,,0.00,meteohub,2013-06-24 03:12:00,
2013-06-23 23:17:00,77.7,44.8,30.22,SSE,158,2.0,4.0,31,0.00,,,0.00,meteohub,2013-06-24 03:17:00,
2013-06-23 23:22:00,77.5,44.6,30.22,SSE,158,3.0,4.0,31,0.00,,,0.00,meteohub,2013-06-24 03:22:00,
2013-06-23 23:27:00,77.5,44.6,30.22,SSE,158,1.0,4.0,31,0.00,,,0.00,meteohub,2013-06-24 03:27:00,
2013-06-23 23:32:00,77.4,44.4,30.22,SSE,158,3.0,4.0,31,0.00,,,0.00,meteohub,2013-06-24 03:32:00,
2013-06-23 23:37:00,77.4,44.4,30.22,SSE,158,2.0,4.0,31,0.00,,,0.00,meteohub,2013-06-24 03:37:00,
2013-06-23 23:42:00,77.4,44.4,30.22,SSE,158,3.0,4.0,31,0.00,,,0.00,meteohub,2013-06-24 03:42:00,
2013-06-23 23:48:00,77.2,44.2,30.22,SSE,158,0.0,4.0,31,0.00,,,0.00,meteohub,2013-06-24 03:48:00,
2013-06-23 23:54:00,77.0,44.1,30.22,SE,135,0.0,4.0,31,0.00,,,0.00,meteohub,2013-06-24 03:54:00,